SIA915 RPLL-WSSS

Flight info

Callsign SIA915
Flight time N/A
Altitude 38000
Route BUCAL4V BUCAL M646 TOKON M767 TOMAN KARTO2B
Aircraft B77W/H-SDE1E2E3FGHIJ2J3J4J5M1RWXYZ/LB1D1

Departure

Time 2026-05-07 11:54
Airport Ninoy Aquino International Airport (RPLL)

Arrival

Time N/A
Airport Singapore Changi Airport (WSSS)
Time Latitude Longitude Altitude Speed Heading
2026-05-07 11:17 14.51750 121.01417 59 ft 0 kts 46°
2026-05-07 11:46 14.51748 121.01414 59 ft 2 kts 46°
2026-05-07 11:47 14.51738 121.01404 59 ft 2 kts 46°
2026-05-07 11:47 14.51732 121.01397 59 ft 2 kts 45°
2026-05-07 11:47 14.51721 121.01387 58 ft 2 kts 32°
2026-05-07 11:47 14.51708 121.01380 58 ft 2 kts 17°
2026-05-07 11:48 14.51693 121.01377 58 ft 2 kts
2026-05-07 11:48 14.51679 121.01377 58 ft 2 kts 351°
2026-05-07 11:48 14.51665 121.01381 58 ft 2 kts 338°
2026-05-07 11:48 14.51652 121.01388 58 ft 2 kts 324°
2026-05-07 11:49 14.51644 121.01394 58 ft 1 kts 316°
2026-05-07 11:49 14.51644 121.01395 59 ft 0 kts 316°
2026-05-07 11:51 14.51657 121.01382 58 ft 5 kts 315°
2026-05-07 11:51 14.51664 121.01329 57 ft 10 kts 261°
2026-05-07 11:51 14.51692 121.01243 56 ft 15 kts 310°
2026-05-07 11:52 14.51780 121.01149 54 ft 20 kts 315°
2026-05-07 11:52 14.51891 121.01035 51 ft 24 kts 315°
2026-05-07 11:52 14.52010 121.00911 48 ft 18 kts 314°
2026-05-07 11:52 14.52093 121.00826 46 ft 14 kts 315°
2026-05-07 11:53 14.52147 121.00756 44 ft 10 kts 282°
2026-05-07 11:53 14.52117 121.00697 43 ft 8 kts 196°
2026-05-07 11:53 14.52068 121.00716 45 ft 6 kts 141°
2026-05-07 11:53 14.52040 121.00742 46 ft 5 kts 136°
2026-05-07 11:54 14.51944 121.00840 48 ft 50 kts 135°
2026-05-07 11:54 14.51481 121.01318 61 ft 136 kts 135°
2026-05-07 11:54 14.50663 121.02145 388 ft 178 kts 135°
2026-05-07 11:54 14.49846 121.02966 1501 ft 165 kts 133°
2026-05-07 11:55 14.49027 121.03834 2016 ft 178 kts 133°
2026-05-07 11:55 14.48114 121.04790 2454 ft 196 kts 134°
2026-05-07 11:55 14.47111 121.05825 2965 ft 213 kts 134°
2026-05-07 11:55 14.45993 121.06928 3558 ft 230 kts 143°
2026-05-07 11:56 14.44530 121.07667 4185 ft 249 kts 165°
2026-05-07 11:56 14.42735 121.07736 4819 ft 269 kts 191°
2026-05-07 11:56 14.40978 121.06919 5512 ft 286 kts 220°
2026-05-07 11:56 14.39600 121.05423 6372 ft 293 kts 232°
2026-05-07 11:57 14.38341 121.03800 7265 ft 297 kts 232°
2026-05-07 11:57 14.37035 121.02127 8176 ft 301 kts 231°
2026-05-07 11:57 14.35714 121.00464 8778 ft 306 kts 230°
2026-05-07 11:57 14.34282 120.98830 8936 ft 308 kts 225°
2026-05-07 11:58 14.32772 120.97260 8915 ft 306 kts 225°
2026-05-07 11:58 14.31280 120.95694 8943 ft 305 kts 225°
2026-05-07 11:58 14.29784 120.94103 8954 ft 306 kts 226°
2026-05-07 11:58 14.28308 120.92524 8938 ft 305 kts 226°
2026-05-07 11:59 14.26849 120.90962 8950 ft 305 kts 226°
2026-05-07 11:59 14.25374 120.89380 8950 ft 305 kts 226°
2026-05-07 11:59 14.23887 120.87787 8939 ft 305 kts 226°
2026-05-07 11:59 14.22421 120.86216 8932 ft 306 kts 226°
2026-05-07 12:00 14.20929 120.84618 8933 ft 306 kts 226°
2026-05-07 12:00 14.19459 120.83043 8936 ft 306 kts 226°
2026-05-07 12:00 14.17976 120.81456 8930 ft 307 kts 226°
2026-05-07 12:00 14.16498 120.79873 8927 ft 306 kts 226°
2026-05-07 12:01 14.14986 120.78316 8902 ft 305 kts 217°
2026-05-07 12:01 14.13170 120.77265 8910 ft 301 kts 201°
2026-05-07 12:01 14.11194 120.76505 8922 ft 300 kts 198°
2026-05-07 12:01 14.09204 120.75795 8924 ft 300 kts 198°
2026-05-07 12:02 14.07222 120.75092 8924 ft 300 kts 198°
2026-05-07 12:02 14.05251 120.74388 8922 ft 300 kts 198°
2026-05-07 12:02 14.03278 120.73682 8923 ft 300 kts 198°
2026-05-07 12:02 14.01286 120.72970 8927 ft 300 kts 198°
2026-05-07 12:03 13.99320 120.72266 8926 ft 300 kts 198°
2026-05-07 12:03 13.97347 120.71561 8923 ft 300 kts 198°
2026-05-07 12:03 13.95361 120.70850 8925 ft 300 kts 198°
2026-05-07 12:03 13.93383 120.70143 8923 ft 300 kts 198°
2026-05-07 12:04 13.91370 120.69424 9075 ft 314 kts 198°
2026-05-07 12:04 13.89357 120.68703 10178 ft 308 kts 198°
2026-05-07 12:04 13.87316 120.67972 10943 ft 316 kts 198°
2026-05-07 12:04 13.85172 120.67205 11487 ft 332 kts 198°
2026-05-07 12:05 13.82945 120.66409 12051 ft 347 kts 198°
2026-05-07 12:05 13.80629 120.65578 12614 ft 361 kts 199°
2026-05-07 12:05 13.78211 120.64711 13146 ft 375 kts 198°
2026-05-07 12:05 13.75699 120.63810 13648 ft 389 kts 199°
2026-05-07 12:06 13.73079 120.62871 14123 ft 403 kts 199°
2026-05-07 12:06 13.70418 120.61917 14626 ft 413 kts 199°
2026-05-07 12:06 13.67674 120.60934 14851 ft 418 kts 199°
2026-05-07 12:06 13.64911 120.59944 14874 ft 418 kts 199°
2026-05-07 12:07 13.62147 120.58956 14878 ft 419 kts 199°
2026-05-07 12:07 13.59401 120.57888 14909 ft 421 kts 204°
2026-05-07 12:07 13.56713 120.56612 15369 ft 431 kts 205°
2026-05-07 12:07 13.54016 120.55311 16301 ft 429 kts 205°
2026-05-07 12:08 13.51309 120.54005 17077 ft 430 kts 205°
2026-05-07 12:08 13.48585 120.52691 17620 ft 438 kts 205°
2026-05-07 12:08 13.45796 120.51347 18206 ft 444 kts 205°
2026-05-07 12:08 13.42975 120.49989 18879 ft 447 kts 205°
2026-05-07 12:09 13.40156 120.48632 19541 ft 450 kts 205°
2026-05-07 12:09 13.37312 120.47263 20172 ft 454 kts 205°
2026-05-07 12:09 13.34432 120.45878 20779 ft 458 kts 205°
2026-05-07 12:09 13.31528 120.44482 21372 ft 462 kts 205°
2026-05-07 12:10 13.28632 120.43090 21959 ft 465 kts 205°
2026-05-07 12:10 13.25674 120.41669 22542 ft 469 kts 205°
2026-05-07 12:10 13.22681 120.40231 23111 ft 473 kts 205°
2026-05-07 12:10 13.19706 120.38802 23649 ft 477 kts 205°
2026-05-07 12:11 13.16697 120.37357 24200 ft 481 kts 206°
2026-05-07 12:11 13.13629 120.35885 24727 ft 485 kts 206°
2026-05-07 12:11 13.10570 120.34416 25270 ft 488 kts 206°
2026-05-07 12:11 13.07479 120.32933 25784 ft 492 kts 206°
2026-05-07 12:12 13.04354 120.31434 26306 ft 496 kts 206°
2026-05-07 12:12 13.01207 120.29925 26808 ft 500 kts 206°
2026-05-07 12:12 12.98070 120.28421 27358 ft 503 kts 206°
2026-05-07 12:12 12.94876 120.26891 27867 ft 507 kts 206°
2026-05-07 12:13 12.91652 120.25346 28376 ft 510 kts 206°
2026-05-07 12:13 12.88446 120.23810 28862 ft 514 kts 207°
2026-05-07 12:13 12.85183 120.22247 29410 ft 515 kts 207°
2026-05-07 12:13 12.81950 120.20700 30184 ft 510 kts 206°
2026-05-07 12:14 12.78768 120.19179 31186 ft 500 kts 206°
2026-05-07 12:14 12.75660 120.17694 32191 ft 489 kts 206°
2026-05-07 12:14 12.72586 120.16226 33054 ft 483 kts 206°
2026-05-07 12:14 12.69575 120.14789 33727 ft 481 kts 206°
2026-05-07 12:15 12.66552 120.13346 34245 ft 481 kts 206°
2026-05-07 12:15 12.63499 120.11889 34781 ft 481 kts 206°
2026-05-07 12:15 12.60471 120.10445 35402 ft 479 kts 206°
2026-05-07 12:15 12.57461 120.09008 36031 ft 476 kts 207°
2026-05-07 12:16 12.54429 120.07563 36574 ft 473 kts 207°
2026-05-07 12:16 12.51423 120.06129 36831 ft 476 kts 207°
2026-05-07 12:16 12.48398 120.04686 36826 ft 476 kts 207°
2026-05-07 12:17 12.42385 120.01819 36829 ft 475 kts 207°
2026-05-07 12:17 12.36342 119.98940 36832 ft 475 kts 207°
2026-05-07 12:18 12.30337 119.96079 36830 ft 475 kts 207°
2026-05-07 12:18 12.24335 119.93220 36831 ft 475 kts 207°
2026-05-07 12:18 12.21322 119.91786 37008 ft 479 kts 207°
2026-05-07 12:19 12.18302 119.90350 37533 ft 475 kts 207°
2026-05-07 12:19 12.15302 119.88923 38127 ft 470 kts 207°
2026-05-07 12:19 12.12360 119.87524 38554 ft 468 kts 207°
2026-05-07 12:19 12.09382 119.86108 38839 ft 468 kts 207°
2026-05-07 12:20 12.06431 119.84705 39027 ft 470 kts 207°
2026-05-07 12:20 12.03453 119.83290 39223 ft 470 kts 207°
2026-05-07 12:20 12.00479 119.81877 39476 ft 470 kts 207°
2026-05-07 12:20 11.97535 119.80479 39752 ft 469 kts 207°
2026-05-07 12:21 11.94564 119.79067 39818 ft 469 kts 207°
2026-05-07 12:21 11.88645 119.76257 39827 ft 467 kts 207°
2026-05-07 12:22 11.82750 119.73460 39825 ft 468 kts 207°
2026-05-07 12:22 11.76848 119.70660 39825 ft 467 kts 207°
2026-05-07 12:23 11.71220 119.67389 39849 ft 465 kts 220°
2026-05-07 12:23 11.66749 119.62627 39844 ft 464 kts 234°
2026-05-07 12:24 11.62909 119.57343 39827 ft 463 kts 235°
2026-05-07 12:24 11.59115 119.52074 39828 ft 464 kts 235°
2026-05-07 12:25 11.55260 119.46703 39826 ft 464 kts 235°
2026-05-07 12:25 11.51459 119.41402 39824 ft 463 kts 235°
2026-05-07 12:26 11.47673 119.36119 39824 ft 463 kts 235°
2026-05-07 12:26 11.43877 119.30823 39823 ft 464 kts 235°
2026-05-07 12:27 11.40060 119.25499 39823 ft 463 kts 235°
2026-05-07 12:27 11.36268 119.20212 39823 ft 463 kts 235°
2026-05-07 12:28 11.32473 119.14922 39824 ft 463 kts 235°
2026-05-07 12:28 11.28668 119.09622 39824 ft 463 kts 235°
2026-05-07 12:29 11.24839 119.04291 39824 ft 463 kts 235°
2026-05-07 12:29 11.21050 118.99017 39826 ft 463 kts 235°
2026-05-07 12:30 11.17226 118.93699 39825 ft 464 kts 235°
2026-05-07 12:30 11.13436 118.88429 39825 ft 464 kts 235°
2026-05-07 12:31 11.09608 118.83111 39825 ft 463 kts 235°
2026-05-07 12:31 11.05786 118.77802 39824 ft 464 kts 235°
2026-05-07 12:32 11.01976 118.72515 39824 ft 463 kts 235°
2026-05-07 12:32 10.98139 118.67191 39825 ft 464 kts 235°
2026-05-07 12:33 10.92418 118.59259 39824 ft 465 kts 235°
2026-05-07 12:33 10.88579 118.53939 39825 ft 464 kts 235°
2026-05-07 12:34 10.84765 118.48656 39823 ft 465 kts 235°
2026-05-07 12:34 10.80920 118.43334 39825 ft 466 kts 235°
2026-05-07 12:35 10.77097 118.38045 39823 ft 465 kts 235°
2026-05-07 12:35 10.73275 118.32759 39829 ft 465 kts 235°
2026-05-07 12:36 10.69433 118.27449 39829 ft 466 kts 235°
2026-05-07 12:36 10.65583 118.22130 39829 ft 464 kts 235°
2026-05-07 12:37 10.61751 118.16839 39828 ft 466 kts 235°
2026-05-07 12:37 10.57895 118.11517 39830 ft 467 kts 235°
2026-05-07 12:38 10.54045 118.06206 39833 ft 466 kts 235°
2026-05-07 12:38 10.50194 118.00895 39837 ft 467 kts 235°
2026-05-07 12:39 10.46325 117.95563 39836 ft 465 kts 235°
2026-05-07 12:39 10.42482 117.90269 39834 ft 466 kts 235°
2026-05-07 12:40 10.38624 117.84957 39824 ft 466 kts 235°
2026-05-07 12:40 10.34794 117.79684 39822 ft 465 kts 235°
2026-05-07 12:41 10.30964 117.74338 39816 ft 467 kts 236°
2026-05-07 12:41 10.27162 117.69024 39816 ft 467 kts 236°
2026-05-07 12:42 10.23332 117.63677 39821 ft 467 kts 236°
2026-05-07 12:42 10.19506 117.58338 39824 ft 467 kts 236°
2026-05-07 12:43 10.15703 117.53036 39824 ft 466 kts 236°
2026-05-07 12:43 10.11881 117.47710 39823 ft 466 kts 236°
2026-05-07 12:44 10.08073 117.42405 39824 ft 466 kts 236°
2026-05-07 12:44 10.04261 117.37099 39824 ft 465 kts 236°
2026-05-07 12:45 10.00445 117.31789 39826 ft 467 kts 236°
2026-05-07 12:45 9.96610 117.26453 39827 ft 467 kts 236°
2026-05-07 12:46 9.92798 117.21153 39827 ft 468 kts 236°
2026-05-07 12:46 9.88972 117.15837 39827 ft 467 kts 236°
2026-05-07 12:47 9.85137 117.10510 39827 ft 468 kts 235°
2026-05-07 12:47 9.81313 117.05201 39826 ft 467 kts 236°
2026-05-07 12:48 9.77467 116.99862 39828 ft 469 kts 236°
2026-05-07 12:48 9.73616 116.94521 39828 ft 468 kts 236°
2026-05-07 12:49 9.69772 116.89191 39828 ft 470 kts 235°
2026-05-07 12:49 9.65935 116.83873 39832 ft 469 kts 236°
2026-05-07 12:50 9.62063 116.78509 39840 ft 469 kts 236°
2026-05-07 12:50 9.58215 116.73180 39838 ft 470 kts 236°
2026-05-07 12:51 9.54357 116.67841 39837 ft 470 kts 236°
2026-05-07 12:51 9.50493 116.62495 39837 ft 470 kts 236°
2026-05-07 12:52 9.46640 116.57166 39838 ft 471 kts 236°
2026-05-07 12:52 9.42752 116.51791 39840 ft 471 kts 236°
2026-05-07 12:53 9.38887 116.46451 39838 ft 472 kts 236°
2026-05-07 12:53 9.35028 116.41122 39842 ft 471 kts 236°
2026-05-07 12:54 9.31137 116.35751 39844 ft 472 kts 236°
2026-05-07 12:54 9.27264 116.30405 39846 ft 472 kts 235°
2026-05-07 12:55 9.23371 116.25071 39844 ft 473 kts 235°
2026-05-07 12:55 9.19451 116.19710 39839 ft 472 kts 235°
2026-05-07 12:56 9.15555 116.14381 39833 ft 474 kts 235°
2026-05-07 12:56 9.11644 116.09033 39828 ft 473 kts 235°
2026-05-07 12:57 9.07718 116.03667 39828 ft 475 kts 235°
2026-05-07 12:57 9.03794 115.98305 39826 ft 475 kts 235°
2026-05-07 12:58 8.99874 115.92951 39827 ft 474 kts 236°
2026-05-07 12:58 8.95944 115.87586 39826 ft 474 kts 235°
2026-05-07 12:59 8.92015 115.82224 39827 ft 474 kts 235°
2026-05-07 12:59 8.88096 115.76875 39825 ft 475 kts 235°
2026-05-07 13:00 8.84142 115.71481 39825 ft 475 kts 235°
2026-05-07 13:00 8.80216 115.66128 39825 ft 475 kts 235°
2026-05-07 13:01 8.76281 115.60765 39825 ft 477 kts 235°
2026-05-07 13:01 8.72331 115.55383 39824 ft 477 kts 235°
2026-05-07 13:02 8.68390 115.50016 39824 ft 476 kts 235°
2026-05-07 13:02 8.64413 115.44601 39825 ft 477 kts 235°
2026-05-07 13:03 8.60462 115.39226 39824 ft 477 kts 235°
2026-05-07 13:03 8.56513 115.33855 39826 ft 477 kts 235°
2026-05-07 13:04 8.52541 115.28453 39826 ft 477 kts 235°
2026-05-07 13:04 8.48602 115.23099 39828 ft 477 kts 235°
2026-05-07 13:05 8.44630 115.17704 39827 ft 476 kts 235°
2026-05-07 13:05 8.40671 115.12328 39832 ft 477 kts 235°
2026-05-07 13:06 8.36729 115.06975 39841 ft 477 kts 235°
2026-05-07 13:06 8.32763 115.01594 39847 ft 478 kts 235°
2026-05-07 13:07 8.28799 114.96217 39847 ft 478 kts 235°
2026-05-07 13:07 8.24828 114.90833 39847 ft 478 kts 235°
2026-05-07 13:08 8.20846 114.85435 39847 ft 477 kts 235°
2026-05-07 13:08 8.16898 114.80086 39847 ft 478 kts 235°
2026-05-07 13:09 8.12919 114.74696 39847 ft 478 kts 235°
2026-05-07 13:09 8.08937 114.69305 39844 ft 479 kts 235°
2026-05-07 13:10 8.04957 114.63917 39839 ft 480 kts 235°
2026-05-07 13:10 8.00952 114.58500 39834 ft 480 kts 235°
2026-05-07 13:11 7.96934 114.53066 39828 ft 481 kts 235°
2026-05-07 13:11 7.92952 114.47681 39825 ft 481 kts 235°
2026-05-07 13:12 7.88915 114.42227 39823 ft 481 kts 235°
2026-05-07 13:12 7.84933 114.36847 39825 ft 482 kts 235°
2026-05-07 13:13 7.80897 114.31397 39825 ft 482 kts 235°
2026-05-07 13:13 7.76883 114.25977 39825 ft 484 kts 235°
2026-05-07 13:14 7.72864 114.20554 39825 ft 484 kts 235°
2026-05-07 13:14 7.68808 114.15083 39826 ft 484 kts 235°
2026-05-07 13:15 7.64781 114.09654 39824 ft 486 kts 235°
2026-05-07 13:15 7.60752 114.04222 39827 ft 485 kts 235°
2026-05-07 13:16 7.56712 113.98777 39826 ft 486 kts 235°
2026-05-07 13:16 7.52673 113.93336 39824 ft 486 kts 235°
2026-05-07 13:17 7.48608 113.87863 39824 ft 486 kts 235°
2026-05-07 13:17 7.44535 113.82381 39826 ft 486 kts 235°
2026-05-07 13:18 7.40477 113.76920 39825 ft 486 kts 235°
2026-05-07 13:18 7.36422 113.71466 39827 ft 487 kts 235°
2026-05-07 13:19 7.32358 113.66001 39828 ft 488 kts 235°
2026-05-07 13:19 7.28272 113.60508 39826 ft 487 kts 235°
2026-05-07 13:20 7.24209 113.55048 39831 ft 487 kts 235°
2026-05-07 13:20 7.20124 113.49563 39835 ft 487 kts 235°
2026-05-07 13:21 7.16055 113.44097 39838 ft 489 kts 235°
2026-05-07 13:21 7.11989 113.38641 39840 ft 488 kts 235°
2026-05-07 13:22 7.07893 113.33144 39833 ft 488 kts 234°
2026-05-07 13:22 7.03818 113.27677 39835 ft 488 kts 234°
2026-05-07 13:23 6.99756 113.22230 39841 ft 489 kts 234°
2026-05-07 13:23 6.95668 113.16750 39837 ft 488 kts 234°
2026-05-07 13:24 6.91595 113.11291 39831 ft 490 kts 234°
2026-05-07 13:24 6.87488 113.05789 39824 ft 490 kts 234°
2026-05-07 13:25 6.83401 113.00314 39827 ft 490 kts 234°
2026-05-07 13:25 6.79306 112.94832 39824 ft 489 kts 234°
2026-05-07 13:26 6.75209 112.89348 39826 ft 490 kts 234°
2026-05-07 13:26 6.71099 112.83849 39827 ft 488 kts 234°
2026-05-07 13:27 6.67014 112.78385 39826 ft 490 kts 234°
2026-05-07 13:27 6.62904 112.72889 39826 ft 489 kts 234°
2026-05-07 13:28 6.58813 112.67421 39825 ft 490 kts 234°
2026-05-07 13:28 6.54710 112.61938 39826 ft 489 kts 234°
2026-05-07 13:29 6.50630 112.56489 39826 ft 489 kts 234°
2026-05-07 13:29 6.46537 112.51024 39828 ft 491 kts 234°
2026-05-07 13:30 6.42439 112.45554 39827 ft 490 kts 234°
2026-05-07 13:30 6.38319 112.40056 39828 ft 491 kts 234°
2026-05-07 13:31 6.34228 112.34598 39827 ft 490 kts 234°
2026-05-07 13:31 6.30108 112.29103 39826 ft 492 kts 234°
2026-05-07 13:32 6.26004 112.23632 39826 ft 491 kts 234°
2026-05-07 13:32 6.21879 112.18134 39826 ft 491 kts 234°
2026-05-07 13:33 6.17785 112.12679 39827 ft 491 kts 234°
2026-05-07 13:33 6.13661 112.07185 39828 ft 491 kts 234°
2026-05-07 13:34 6.07473 111.98946 39825 ft 492 kts 234°
2026-05-07 13:35 6.03345 111.93452 39827 ft 493 kts 234°
2026-05-07 13:35 5.99210 111.87949 39826 ft 493 kts 234°
2026-05-07 13:36 5.95051 111.82416 39827 ft 494 kts 234°
2026-05-07 13:36 5.90912 111.76911 39824 ft 492 kts 234°
2026-05-07 13:37 5.86780 111.71416 39836 ft 494 kts 234°
2026-05-07 13:37 5.82613 111.65878 39844 ft 494 kts 234°
2026-05-07 13:38 5.78448 111.60343 39844 ft 494 kts 234°
2026-05-07 13:38 5.74329 111.54871 39847 ft 494 kts 234°
2026-05-07 13:39 5.70164 111.49340 39842 ft 494 kts 234°
2026-05-07 13:39 5.66030 111.43851 39836 ft 494 kts 234°
2026-05-07 13:40 5.61866 111.38322 39831 ft 495 kts 234°
2026-05-07 13:40 5.57700 111.32795 39823 ft 495 kts 234°
2026-05-07 13:41 5.53550 111.27289 39824 ft 495 kts 234°
2026-05-07 13:41 5.49395 111.21777 39824 ft 495 kts 234°
2026-05-07 13:42 5.45260 111.16295 39823 ft 495 kts 234°
2026-05-07 13:42 5.41106 111.10788 39825 ft 495 kts 234°
2026-05-07 13:43 5.36942 111.05270 39826 ft 494 kts 234°
2026-05-07 13:43 5.32788 110.99766 39827 ft 496 kts 234°
2026-05-07 13:44 5.28613 110.94235 39826 ft 496 kts 234°
2026-05-07 13:44 5.24463 110.88740 39828 ft 496 kts 234°
2026-05-07 13:45 5.20288 110.83212 39828 ft 496 kts 234°
2026-05-07 13:45 5.16134 110.77713 39827 ft 495 kts 233°
2026-05-07 13:46 5.11974 110.72208 39827 ft 496 kts 233°
2026-05-07 13:46 5.07822 110.66715 39828 ft 495 kts 233°
2026-05-07 13:47 5.03663 110.61214 39828 ft 496 kts 233°
2026-05-07 13:47 4.99492 110.55698 39830 ft 497 kts 233°
2026-05-07 13:48 4.95324 110.50188 39828 ft 494 kts 233°
2026-05-07 13:48 4.91167 110.44693 39830 ft 495 kts 233°
2026-05-07 13:49 4.86997 110.39184 39828 ft 495 kts 233°
2026-05-07 13:49 4.82844 110.33697 39827 ft 495 kts 233°
2026-05-07 13:50 4.78674 110.28188 39839 ft 495 kts 233°
2026-05-07 13:50 4.74516 110.22698 39845 ft 496 kts 233°
2026-05-07 13:51 4.70337 110.17181 39847 ft 495 kts 233°
2026-05-07 13:51 4.66182 110.11697 39845 ft 493 kts 233°
2026-05-07 13:52 4.62051 110.06245 39845 ft 494 kts 233°
2026-05-07 13:52 4.57871 110.00729 39847 ft 495 kts 233°
2026-05-07 13:53 4.53729 109.95267 39849 ft 496 kts 233°
2026-05-07 13:53 4.49545 109.89748 39844 ft 495 kts 233°
2026-05-07 13:54 4.45390 109.84270 39848 ft 494 kts 233°
2026-05-07 13:54 4.41234 109.78791 39845 ft 494 kts 233°
2026-05-07 13:55 4.37083 109.73321 39844 ft 495 kts 233°
2026-05-07 13:55 4.32909 109.67821 39844 ft 494 kts 233°
2026-05-07 13:56 4.28753 109.62347 39846 ft 496 kts 233°
2026-05-07 13:56 4.24581 109.56851 39844 ft 495 kts 233°
2026-05-07 13:57 4.20432 109.51389 39840 ft 494 kts 233°
2026-05-07 13:57 4.16256 109.45891 39834 ft 494 kts 233°
2026-05-07 13:58 4.12103 109.40424 39831 ft 495 kts 233°
2026-05-07 13:58 4.07935 109.34941 39826 ft 494 kts 233°
2026-05-07 13:59 4.03794 109.29493 39828 ft 494 kts 233°
2026-05-07 13:59 3.99638 109.24026 39823 ft 493 kts 233°
2026-05-07 14:00 3.95482 109.18560 39823 ft 493 kts 233°
2026-05-07 14:00 3.91325 109.13094 39828 ft 494 kts 233°
2026-05-07 14:01 3.87139 109.07591 39823 ft 494 kts 233°
2026-05-07 14:01 3.82995 109.02145 39827 ft 494 kts 233°
2026-05-07 14:02 3.78842 108.96686 39829 ft 493 kts 233°
2026-05-07 14:02 3.74687 108.91227 39831 ft 494 kts 233°
2026-05-07 14:03 3.70515 108.85746 39843 ft 493 kts 233°
2026-05-07 14:03 3.66367 108.80278 39848 ft 495 kts 233°
2026-05-07 14:04 3.62213 108.74799 39848 ft 494 kts 233°